Simultaneous Nadir Overpasses (SNOs) Predictions

Prediction of SNOs between AQUA and GOES-15 Satellite Orbit:

Table of predicted SNOs for the next 14.0 days since TLE Epoch: 7/8/2023
Index Date Time (AQUA) AQUA Lat,Lon GOES-15 Lat,Lon Distance(km) Time Diff (sec)
1 07/08/2023 13:45:41 0.31,-178.72 -0.29,-176.02 308.10 80
2 07/10/2023 13:31:35 -0.83,-175.34 -0.27,-178.07 310.02 80
3 07/11/2023 01:52:31 -0.08, 179.56 0.30,-178.61 207.34 80
4 07/13/2023 01:38:24 1.04,-177.05 0.28, 179.34 410.49 80
5 07/13/2023 13:59:10 -0.12, 177.90 -0.32, 178.82 104.03 80
6 07/16/2023 02:05:58 0.33, 176.20 0.33, 176.24 4.56 80
7 07/18/2023 14:12:35 -0.55, 174.54 -0.35, 173.68 98.34 80
8 07/19/2023 02:33:29 -0.43, 169.46 0.37, 173.15 419.57 80
9 07/21/2023 02:19:21 0.75, 172.84 0.36, 171.11 198.19 80
10 07/21/2023 14:40:06 0.22, 167.80 -0.38, 170.58 315.75 80
